EW7074 Weather Reports


time (UTC)temp
F
wind
direction
speed
knots
gust
knots
rain 1hr
in
rain 24hr
in
rain mn
in
humidity
%
barometer
mb
20260508085633 61 245 0.0 0.0 0.00 0.47 0.47 88 1006.2
20260508085134 61 235 0.0 0.0 0.00 0.47 0.47 88 1006.0
20260508084904 61 264 0.0 0.0 0.00 0.47 0.47 90 1005.9
20260508084129 60 299 0.0 0.0 0.00 0.47 0.47 90 1005.8
20260508083627 60 229 0.0 0.0 0.00 0.47 0.47 91 1005.6
20260508083126 60 235 0.0 0.0 0.00 0.47 0.47 91 1005.5
20260508082623 60 220 0.0 0.0 0.00 0.47 0.47 91 1005.4
20260508082123 60 224 0.0 0.0 0.00 0.47 0.47 91 1005.3
20260508081618 60 211 0.0 0.0 0.00 0.47 0.47 91 1005.3
20260508081113 60 159 0.0 0.0 0.00 0.47 0.47 91 1005.2
20260508080613 60 157 0.0 0.0 0.00 0.47 0.47 91 1005.2
20260508080111 60 157 0.0 0.0 0.00 0.47 0.47 91 1005.2
20260508075611 60 157 0.0 0.0 0.00 0.47 0.47 91 1005.1
20260508075111 59 65 0.0 0.0 0.00 0.47 0.47 91 1004.9
20260508074839 59 65 0.0 0.0 0.00 0.47 0.47 91 1004.7
20260508074110 59 65 0.0 0.0 0.00 0.47 0.47 91 1004.6
20260508073608 59 65 0.0 0.0 0.00 0.47 0.47 91 1004.5
20260508073105 59 65 0.0 0.0 0.00 0.47 0.47 91 1004.3
20260508072604 59 65 0.9 3.5 0.01 0.47 0.47 91 1004.4
20260508072053 59 65 2.6 6.1 0.01 0.47 0.47 91 1004.2
20260508071549 59 59 3.5 6.1 0.03 0.47 0.47 91 1003.8
20260508071039 59 62 3.5 6.1 0.03 0.47 0.47 90 1003.9
20260508070530 59 70 3.5 5.2 0.05 0.47 0.47 91 1004.1
20260508070020 60 68 0.9 5.2 0.07 0.47 0.47 90 1004.2
20260508065507 60 39 0.0 3.5 0.09 0.47 0.47 90 1004.1
20260508064954 60 38 0.0 1.7 0.09 0.47 0.47 90 1004.1
20260508064443 60 253 0.0 0.0 0.11 0.47 0.47 90 1004.0
20260508064158 60 249 0.0 1.7 0.14 0.47 0.47 90 1004.5
20260508063418 60 249 0.0 1.7 0.17 0.47 0.47 90 1004.5
20260508062908 60 249 0.0 8.7 0.24 0.47 0.47 90 1004.7
20260508062355 59 249 0.9 8.7 0.26 0.46 0.46 90 1004.6
20260508061845 60 249 3.5 14.8 0.26 0.46 0.46 90 1005.1
20260508061335 60 245 7.0 14.8 0.25 0.44 0.44 89 1005.3
20260508061056 60 214 9.6 19.1 0.23 0.42 0.42 89 1005.2
20260508060317 60 246 9.6 19.1 0.22 0.41 0.41 89 1004.6
20260508055757 60 210 8.7 17.4 0.20 0.39 0.39 89 1004.5
20260508055244 61 216 9.6 20.9 0.19 0.38 0.38 88 1004.4
20260508054732 61 276 10.4 20.0 0.16 0.35 0.37 88 1005.0
20260508054221 62 223 13.0 20.0 0.14 0.33 0.33 87 1004.3
20260508053942 63 191 9.6 33.9 0.15 0.33 0.33 87 1004.1
20260508053153 65 264 2.6 33.9 0.07 0.25 0.27 85 1004.3
20260508052645 69 228 0.0 0.0 0.03 0.20 0.20 89 1004.1
20260508052134 69 247 0.0 0.0 0.09 0.19 0.19 89 1003.5
20260508051625 69 231 0.0 0.0 0.15 0.19 0.19 88 1003.0
20260508051114 69 220 0.0 0.0 0.15 0.19 0.19 88 1003.0
20260508050604 69 216 0.0 0.0 0.15 0.19 0.19 88 1003.2
20260508050053 69 211 0.0 0.0 0.15 0.19 0.19 87 1002.9
20260508045544 69 230 0.0 0.0 0.15 0.19 0.19 87 1002.7
20260508045033 70 222 0.0 0.0 0.15 0.19 0.19 86 1002.3
20260508044524 70 324 0.0 0.0 0.15 0.19 0.19 85 1002.4
20260508044011 70 324 0.0 0.0 0.13 0.17 0.17 85 1002.4
20260508043458 70 324 0.0 0.0 0.13 0.17 0.17 84 1002.3
20260508042947 71 343 0.0 0.0 0.14 0.17 0.17 83 1002.1
20260508042710 71 309 0.0 0.0 0.17 0.17 0.17 82 1002.1
20260508041929 71 316 0.0 0.0 0.04 0.04 0.04 81 1002.1
20260508041418 71 313 0.0 0.0 0.04 0.04 0.04 82 1001.9
20260508035838 70 343 0.0 5.2 0.04 0.04 0.04 82 1001.3
20260508035557 70 325 0.0 5.2 0.04 0.04 0.04 82 1001.2
20260508034821 70 294 0.0 2.6 0.04 0.04 0.04 82 1001.3
20260508034552 71 308 0.0 2.6 0.04 0.04 0.04 82 1001.4
20260508033821 71 348 0.0 2.6 0.04 0.04 0.04 81 1001.8
20260508033322 71 310 0.0 5.2 0.03 0.03 0.03 81 1002.0
20260508032820 71 5 0.9 5.2 0.03 0.03 0.03 81 1002.0
20260508032551 71 316 0.9 6.1 0.00 0.00 0.00 81 1002.5
20260508031823 71 324 1.7 9.6 0.00 0.00 0.00 81 1002.5
20260508031320 70 311 0.9 9.6 0.00 0.00 0.00 82 1002.5
20260508030832 70 292 0.0 5.2 0.00 0.00 0.00 83 1002.5
20260508030558 70 324 0.0 0.0 0.00 0.00 0.00 83 1002.5
20260508025538 70 318 0.0 3.5 0.15 0.16 0.16 83 1002.5
20260508025306 70 28 0.0 3.5 0.16 0.16 0.16 84 1002.6
20260508024519 70 358 0.0 5.2 0.16 0.16 0.16 84 1002.5
20260508024017 70 0 0.0 5.2 0.16 0.16 0.16 84 1002.8
20260508023514 70 343 0.0 3.5 0.16 0.16 0.16 83 1002.8
20260508023000 70 339 1.7 7.8 0.15 0.15 0.16 83 1003.2
20260508022448 70 333 4.3 11.3 0.15 0.15 0.15 82 1003.0
20260508021937 70 232 5.2 20.0 0.15 0.15 0.15 81 1002.9
20260508021430 71 259 5.2 20.0 0.13 0.13 0.13 81 1003.3
20260508020904 72 277 7.8 18.2 0.10 0.10 0.10 78 1003.6
20260508020354 73 214 12.2 28.7 0.07 0.07 0.09 74 1004.0
20260508015844 77 214 13.0 28.7 0.01 0.01 0.01 64 1003.6
20260508015338 83 287 7.8 27.8 0.00 0.00 0.00 53 1003.6
20260508014837 86 235 2.6 14.8 0.00 0.00 0.00 51 1001.7
20260508014338 86 30 1.7 10.4 0.00 0.00 0.00 50 1000.6
20260508013838 86 339 1.7 10.4 0.00 0.00 0.00 50 1000.3
20260508013327 86 333 1.7 12.2 0.00 0.00 0.00 50 999.7
20260508012816 86 351 4.3 23.5 0.00 0.00 0.00 50 999.6
20260508012308 86 326 4.3 23.5 0.00 0.00 0.00 50 999.7
20260508011753 86 0 2.6 10.4 0.00 0.00 0.00 50 999.7
20260508011239 86 29 2.6 12.2 0.00 0.00 0.00 49 999.6
20260508010729 86 304 3.5 17.4 0.00 0.00 0.00 49 999.7
20260508010452 86 322 3.5 17.4 0.00 0.00 0.00 49 999.6
20260508005708 86 319 3.5 16.5 0.00 0.00 0.00 49 999.7
20260508005426 87 333 3.5 16.5 0.00 0.00 0.00 49 999.6
20260508004637 87 333 4.3 17.4 0.00 0.00 0.00 48 999.6
20260508004122 87 31 4.3 17.4 0.00 0.00 0.00 48 999.5
20260508003614 86 10 4.3 16.5 0.00 0.00 0.00 49 999.6
20260508003103 86 296 4.3 15.6 0.00 0.00 0.00 49 999.5
20260508002550 86 19 3.5 10.4 0.00 0.00 0.00 49 999.3
20260508002034 86 318 2.6 7.8 0.00 0.00 0.00 49 999.2
20260508001013 86 18 1.7 18.2 0.00 0.00 0.00 48 999.5
20260508000458 86 10 0.9 9.6 0.00 0.00 0.00 48 999.3
20260507235952 87 74 2.6 14.8 0.00 0.00 0.00 48 999.5
20260507235503 87 354 3.5 13.9 0.00 0.00 0.00 47 999.3
20260507235452 87 29 3.5 14.8 0.00 0.00 0.00 47 999.4
20260507234452 87 355 2.6 13.9 0.00 0.00 0.00 47 999.2
20260507233952 87 339 2.6 15.6 0.00 0.00 0.00 48 999.3
20260507233450 87 350 3.5 15.6 0.00 0.00 0.00 48 999.3
20260507232448 87 348 1.7 10.4 0.00 0.00 0.00 49 999.3
20260507231948 86 337 1.7 10.4 0.00 0.00 0.00 49 999.3
20260507231720 86 11 1.7 8.7 0.00 0.00 0.00 49 999.5
20260507230947 86 35 0.9 8.7 0.00 0.00 0.00 49 999.5
20260507230441 86 297 1.7 5.2 0.00 0.00 0.00 50 999.5
20260507225940 86 348 1.7 7.0 0.00 0.00 0.00 50 999.5
20260507225440 86 27 1.7 7.0 0.00 0.00 0.00 50 999.2
20260507224939 86 88 2.6 12.2 0.00 0.00 0.00 50 999.4
20260507224710 86 35 3.5 13.9 0.00 0.00 0.00 50 999.5
20260507223940 86 36 2.6 13.9 0.00 0.00 0.00 50 999.7
20260507223440 86 30 0.9 10.4 0.00 0.00 0.00 51 999.6
20260507222940 86 37 0.0 4.3 0.00 0.00 0.00 51 999.6
20260507222720 86 77 0.0 1.7 0.00 0.00 0.00 51 999.7
20260507221937 86 46 0.9 7.8 0.00 0.00 0.00 51 999.9
20260507221435 86 70 0.9 7.8 0.00 0.00 0.00 50 999.7
20260507220918 86 70 0.0 0.0 0.00 0.00 0.00 50 1000.0
20260507220649 87 78 0.0 1.7 0.00 0.00 0.00 50 1000.0
20260507215916 87 79 0.0 1.7 0.00 0.00 0.00 50 1000.0
20260507215411 87 36 0.0 6.1 0.00 0.00 0.00 50 1000.1
20260507214911 87 359 0.9 6.1 0.00 0.00 0.00 50 1000.1
20260507214412 87 337 0.0 5.2 0.00 0.00 0.00 50 1000.3
20260507213911 87 32 0.9 6.1 0.00 0.00 0.00 49 1000.2
20260507213643 87 35 0.9 6.1 0.00 0.00 0.00 49 1000.2
20260507212912 87 70 0.9 7.0 0.00 0.00 0.00 49 1000.2
20260507212412 87 355 0.9 7.8 0.00 0.00 0.00 49 1000.4
20260507211911 87 24 0.9 7.8 0.00 0.00 0.00 49 1000.3
20260507211412 88 359 0.0 5.2 0.00 0.00 0.00 48 1000.4
20260507210911 88 352 0.0 1.7 0.00 0.00 0.00 48 1000.5
20260507210411 88 316 0.9 6.1 0.00 0.00 0.00 48 1000.5
20260507205907 88 11 1.7 7.8 0.00 0.00 0.00 48 1000.5
20260507205402 88 328 1.7 7.8 0.00 0.00 0.00 47 1000.4
20260507205132 88 341 0.9 6.1 0.00 0.00 0.00 48 1000.4
20260507203849 89 329 0.9 7.8 0.00 0.00 0.00 47 1000.3
20260507203349 89 1 0.9 7.8 0.00 0.00 0.00 47 1000.5
20260507202847 89 310 1.7 7.8 0.00 0.00 0.00 46 1000.4
20260507202619 89 352 0.9 7.8 0.00 0.00 0.00 46 1000.4
20260507202454 89 17 0.9 7.8 0.00 0.00 0.00 46 1000.3
20260507201344 90 335 1.7 7.8 0.00 0.00 0.00 46 1000.3
20260507200844 90 326 0.9 7.0 0.00 0.00 0.00 46 1000.3
20260507200344 90 319 0.9 4.3 0.00 0.00 0.00 46 1000.2
20260507195840 90 339 1.7 8.7 0.00 0.00 0.00 46 1000.2
20260507195338 90 288 1.7 8.7 0.00 0.00 0.00 46 1000.0
20260507194838 89 330 1.7 7.8 0.00 0.00 0.00 47 1000.0
20260507193829 89 322 0.9 9.6 0.00 0.00 0.00 48 1000.0
20260507193323 89 60 0.9 6.1 0.00 0.00 0.00 49 1000.1
20260507192818 89 8 0.9 10.4 0.00 0.00 0.00 48 1000.2
20260507192316 89 4 0.9 10.4 0.00 0.00 0.00 48 1000.1
20260507191812 89 18 1.7 10.4 0.00 0.00 0.00 48 1000.2
20260507191305 89 344 2.6 10.4 0.00 0.00 0.00 47 1000.3
20260507190800 89 335 1.7 10.4 0.00 0.00 0.00 47 1000.4
20260507190249 89 10 0.9 6.1 0.00 0.00 0.00 48 1000.4
20260507185747 89 20 0.9 5.2 0.00 0.00 0.00 48 1000.3
20260507185237 89 337 0.9 4.3 0.00 0.00 0.00 48 1000.3
20260507184724 89 48 0.9 4.3 0.00 0.00 0.00 48 1000.5
20260507184217 89 4 0.9 4.3 0.00 0.00 0.00 48 1000.5
20260507183705 89 19 0.9 5.2 0.00 0.00 0.00 48 1000.6
20260507183201 89 330 0.9 4.3 0.00 0.00 0.00 48 1000.6
20260507182650 89 313 0.9 5.2 0.00 0.00 0.00 47 1000.6
20260507182140 89 333 0.9 7.0 0.00 0.00 0.00 47 1000.5
20260507181628 89 347 0.9 7.0 0.00 0.00 0.00 47 1000.6
20260507181118 89 345 1.7 9.6 0.00 0.00 0.00 47 1000.6
20260507180608 89 17 1.7 9.6 0.00 0.00 0.00 47 1000.4
20260507180327 89 25 0.9 6.1 0.00 0.00 0.00 48 1000.5
20260507175546 89 24 1.7 6.1 0.00 0.00 0.00 48 1000.4
20260507175307 89 332 1.7 6.1 0.00 0.00 0.00 48 1000.6
20260507174526 89 29 0.9 3.5 0.00 0.00 0.00 48 1000.6
20260507174014 89 352 0.9 4.3 0.00 0.00 0.00 48 1000.5
20260507173736 89 13 1.7 8.7 0.00 0.00 0.00 48 1000.6
20260507173224 89 335 1.7 8.7 0.00 0.00 0.00 47 1000.7
20260507172442 90 24 1.7 5.2 0.00 0.00 0.00 48 1000.7
20260507171931 90 2 1.7 7.0 0.00 0.00 0.00 48 1000.9
20260507171413 90 35 2.6 11.3 0.00 0.00 0.00 48 1001.0
20260507170905 90 291 2.6 11.3 0.00 0.00 0.00 48 1001.2
20260507170352 90 60 1.7 11.3 0.00 0.00 0.00 47 1001.0
20260507165851 90 328 2.6 13.0 0.00 0.00 0.00 47 1001.1
20260507165345 90 353 2.6 13.0 0.00 0.00 0.00 46 1001.2
20260507164327 90 279 5.2 13.9 0.00 0.00 0.00 46 1001.5
20260507163815 91 342 5.2 14.8 0.00 0.00 0.00 45 1001.6
20260507163300 91 303 4.3 14.8 0.00 0.00 0.00 45 1001.4
20260507162750 91 345 3.5 12.2 0.00 0.00 0.00 45 1001.6
20260507162239 91 38 4.3 18.2 0.00 0.00 0.00 45 1001.4
20260507161722 91 12 6.1 20.0 0.00 0.00 0.00 46 1001.7
20260507161208 90 337 4.3 15.6 0.00 0.00 0.00 46 1001.8
20260507160927 91 303 3.5 17.4 0.00 0.00 0.00 47 1002.0
20260507160138 91 329 4.3 17.4 0.00 0.00 0.00 47 1001.9
20260507155632 92 262 2.6 15.6 0.00 0.00 0.00 48 1001.9
20260507155128 91 339 1.7 10.4 0.00 0.00 0.00 49 1001.8
20260507154630 90 307 1.7 8.7 0.00 0.00 0.00 49 1001.9
20260507154128 89 312 2.6 12.2 0.00 0.00 0.00 51 1002.2
20260507153628 89 338 3.5 12.2 0.00 0.00 0.00 50 1002.3
20260507152622 90 317 2.6 14.8 0.00 0.00 0.00 51 1002.4
20260507152123 89 309 3.5 15.6 0.00 0.00 0.00 51 1002.6
20260507151623 89 328 2.6 15.6 0.00 0.00 0.00 52 1002.8
20260507151123 89 38 1.7 12.2 0.00 0.00 0.00 51 1002.8
20260507150621 89 8 1.7 10.4 0.00 0.00 0.00 52 1002.8
20260507150118 89 332 1.7 10.4 0.00 0.00 0.00 53 1003.0
20260507145618 88 262 3.5 14.8 0.00 0.00 0.00 53 1003.3
20260507145114 88 12 2.6 14.8 0.00 0.00 0.00 53 1003.4
20260507144613 88 351 1.7 10.4 0.00 0.00 0.00 53 1003.6
20260507144344 88 351 1.7 10.4 0.00 0.00 0.00 53 1003.7
20260507143612 88 2 1.7 8.7 0.00 0.00 0.00 54 1003.6
20260507143112 88 325 2.6 11.3 0.00 0.00 0.00 54 1004.0
20260507142619 87 333 1.7 7.8 0.00 0.00 0.00 55 1004.3
20260507142612 87 18 2.6 11.3 0.00 0.00 0.00 53 1004.0
20260507141839 87 350 1.7 10.4 0.00 0.00 0.00 55 1004.6
20260507141340 87 310 2.6 15.6 0.00 0.00 0.00 55 1004.6
20260507140839 87 18 1.7 15.6 0.00 0.00 0.00 56 1004.9
20260507140108 87 302 1.7 11.3 0.00 0.00 0.00 56 1004.9
20260507135610 86 338 1.7 9.6 0.00 0.00 0.00 56 1005.2
20260507135108 86 340 2.6 10.4 0.00 0.00 0.00 57 1005.2
20260507134108 85 316 2.6 10.4 0.00 0.00 0.00 57 1005.6
20260507133608 85 327 2.6 10.4 0.00 0.00 0.00 58 1005.7
20260507133108 85 349 1.7 18.2 0.00 0.00 0.00 59 1006.0
20260507132608 84 337 1.7 18.2 0.00 0.00 0.00 60 1006.0
20260507132338 84 348 1.7 7.0 0.00 0.00 0.00 60 1006.1
20260507131606 84 355 0.9 7.0 0.00 0.00 0.00 60 1006.1
20260507131338 84 343 1.7 7.0 0.00 0.00 0.00 60 1006.2
20260507130606 84 31 2.6 7.8 0.00 0.00 0.00 61 1006.3
20260507130106 83 20 1.7 7.8 0.00 0.00 0.00 62 1006.5
20260507125547 83 28 0.9 6.1 0.00 0.00 0.00 63 1006.5
20260507125046 82 33 1.7 10.4 0.00 0.00 0.00 63 1006.6
20260507124547 82 342 0.9 10.4 0.00 0.00 0.00 63 1006.7
20260507124047 82 7 1.7 9.6 0.00 0.00 0.00 63 1006.8
20260507123538 82 338 1.7 9.6 0.00 0.00 0.00 63 1007.0
20260507123033 82 355 0.9 7.8 0.00 0.00 0.00 63 1007.0
20260507122540 82 351 0.9 10.4 0.00 0.00 0.00 64 1007.1
20260507122533 82 343 1.7 10.4 0.00 0.00 0.00 64 1007.0
20260507121530 82 346 0.0 2.6 0.00 0.00 0.00 64 1007.0
20260507121028 82 28 0.0 2.6 0.00 0.00 0.00 65 1006.9
20260507120517 82 9 0.0 1.7 0.00 0.00 0.00 66 1006.9
20260507120017 81 9 0.0 1.7 0.00 0.00 0.00 65 1006.9
20260507115514 81 52 0.0 1.7 0.00 0.00 0.00 65 1007.1
20260507115010 81 52 0.0 1.7 0.00 0.00 0.00 66 1007.0
20260507114509 81 52 0.0 1.7 0.00 0.00 0.00 66 1007.0
20260507114002 81 52 0.0 4.3 0.00 0.00 0.00 66 1007.1
20260507112943 81 42 0.0 1.7 0.00 0.00 0.00 66 1007.0
20260507112438 81 42 0.0 1.7 0.00 0.00 0.00 66 1006.9
20260507111934 81 233 0.0 0.9 0.00 0.00 0.00 66 1006.8
20260507111654 81 124 0.9 6.1 0.00 0.00 0.00 65 1006.9
20260507110919 81 353 0.9 7.0 0.00 0.00 0.00 65 1006.7
20260507110409 81 58 0.9 7.0 0.00 0.00 0.00 65 1006.5
20260507105902 81 37 1.7 8.7 0.00 0.00 0.00 65 1006.4
20260507105404 81 33 1.7 8.7 0.00 0.00 0.00 65 1006.4
20260507104857 81 56 0.9 4.3 0.00 0.00 0.00 67 1006.2
20260507104115 80 326 0.9 3.5 0.00 0.00 0.00 67 1006.1
20260507103608 80 20 0.9 7.8 0.00 0.00 0.00 67 1006.3
20260507102824 80 356 0.9 7.8 0.00 0.00 0.00 68 1006.3
20260507101814 80 327 0.9 7.0 0.00 0.00 0.00 68 1006.4
20260507101312 80 3 1.7 10.4 0.00 0.00 0.00 68 1006.3
20260507100810 80 49 1.7 10.4 0.00 0.00 0.00 68 1006.3
20260507100542 80 15 0.9 6.1 0.00 0.00 0.00 68 1006.4
20260507100042 80 2 0.9 6.1 0.00 0.00 0.00 68 1006.3
20260507095305 80 345 0.9 7.0 0.00 0.00 0.00 68 1006.3
20260507094752 80 303 0.9 7.0 0.00 0.00 0.00 68 1006.4
20260507094243 80 320 0.9 6.1 0.00 0.00 0.00 68 1006.5
20260507094004 80 324 0.9 6.1 0.00 0.00 0.00 68 1006.5
20260507093222 80 333 0.9 6.1 0.00 0.00 0.00 68 1006.6
20260507092700 80 320 0.0 3.5 0.00 0.00 0.00 68 1006.5
20260507092150 80 335 0.0 5.2 0.00 0.00 0.00 68 1006.5
20260507091640 80 333 0.9 5.2 0.00 0.00 0.00 68 1006.5
20260507091131 80 35 0.0 3.5 0.00 0.00 0.00 68 1006.4
20260507090852 79 356 0.0 3.5 0.00 0.00 0.00 69 1006.4
20260507090111 79 25 0.9 3.5 0.00 0.00 0.00 69 1006.3